カタログに戻る

STARLINK-37951

運用中通信SSO
NORAD 69684·PAYLOAD·🇺🇸 United States

打ち上げ Jun 25, 2026 から Vandenberg Space Force Base

Loading…

次のパス (今後24時間)

TLE

最新Source: CelesTrak SupGP

元期: Sep 15, 2026, 04:02 UTC

1 69684C 26145H   26258.16854167 -.00103730  00000+0 -69771-3 0  2588
2 69684  97.2841 108.0612 0001361  96.6482 226.4925 15.75216221    13

AllMySatでSTARLINK-37951をリアルタイム追跡

Download on the App Store